Temp
3 3 0 -1 -1 -2 -2 -2 -3 -4 -4 -5 -6 -7 -8 -8 -8 -8 -8 -9 -9 -9 -9 -9 -9 -9 -9 -9 -8 -7 -6 -5 -4 -3 -2 -1 -1 -2 -1 1 3 3 3 4
3 0 -2 -1 -1 -1 -1 -2 -4 -5 -6 -5 -6 -7 -7 -8 -9 -8 -8 -9 -9 -10 -10 -11 -11 -11 -11 -10 -9 -8 -8 -7 -5 -5 -3 -1 -1 -2 -2 -1 1 3 2 3
1 -2 -1 -1 -1 -2 -2 -3 -4 -6 -6 -6 -8 -8 -8 -8 -8 -9 -9 -10 -10 -10 -10 -11 -11 -12 -12 -12 -11 -10 -9 -8 -7 -6 -5 -4 -2 -1 -2 -1 -1 0 2 3
-0 -1 -1 -1 -1 -2 -3 -4 -4 -5 -6 -6 -7 -8 -7 -8 -8 -9 -10 -10 -10 -10 -11 -11 -11 -12 -12 -13 -13 -12 -11 -11 -8 -7 -7 -6 -4 -2 -1 -1 -0 -3 2 2
-1 -2 -2 -2 -3 -3 -4 -3 -5 -6 -6 -7 -7 -9 -7 -8 -8 -8 -9 -10 -10 -11 -11 -12 -12 -12 -12 -13 -13 -13 -12 -11 -10 -8 -8 -8 -7 -4 -2 -1 -1 -0 0 2
-0 -1 -2 -3 -3 -3 -4 -4 -6 -6 -6 -9 -7 -9 -7 -7 -8 -8 -9 -10 -11 -11 -12 -12 -12 -12 -12 -13 -13 -13 -13 -11 -11 -10 -9 -9 -8 -6 -4 -2 -1 -0 1 2
0 -1 -2 -3 -4 -4 -4 -4 -6 -6 -10 -11 -7 -8 -5 -7 -8 -9 -10 -10 -11 -12 -12 -12 -12 -13 -13 -13 -14 -13 -13 -12 -11 -11 -10 -10 -9 -8 -6 -3 -2 -1 -0 1
-0 -1 -1 -2 -4 -5 -5 -6 -5 -9 -13 -11 -8 -8 -6 -7 -8 -9 -10 -11 -12 -12 -12 -12 -13 -13 -14 -14 -14 -14 -14 -13 -12 -11 -11 -10 -10 -9 -7 -6 -3 -2 -1 0
-0 -1 -2 -3 -4 -4 -5 -6 -7 -9 -9 -10 -9 -7 -7 -7 -8 -9 -10 -11 -11 -12 -12 -13 -14 -14 -14 -14 -14 -15 -15 -15 -14 -12 -11 -11 -10 -9 -8 -7 -5 -3 -2 -1
-0 -1 -2 -3 -4 -4 -5 -5 -6 -7 -13 -14 -10 -9 -6 -7 -8 -9 -10 -11 -12 -12 -13 -13 -14 -14 -15 -14 -15 -15 -15 -15 -15 -14 -12 -11 -10 -9 -9 -7 -6 -5 -3 -2
-0 -1 -1 -3 -3 -4 -5 -6 -6 -7 -8 -13 -18 -8 -6 -7 -7 -9 -10 -11 -11 -12 -13 -13 -14 -14 -15 -15 -15 -16 -16 -16 -15 -14 -12 -11 -10 -9 -9 -8 -7 -6 -5 -3
-1 -1 -1 -2 -2 -3 -5 -5 -6 -7 -8 -9 -9 -8 -5 -6 -7 -9 -10 -11 -11 -12 -13 -14 -14 -14 -15 -15 -16 -16 -16 -16 -16 -14 -12 -11 -10 -10 -9 -9 -7 -6 -6 -4
-1 -1 -2 -2 -3 -4 -5 -5 -6 -7 -7 -8 -10 -6 -5 -6 -7 -8 -9 -10 -12 -12 -14 -14 -14 -15 -15 -16 -16 -16 -16 -16 -15 -14 -12 -10 -10 -10 -10 -9 -8 -7 -6 -5
-1 -1 -1 -2 -2 -3 -4 -4 -5 -7 -8 -7 -6 -5 -4 -6 -8 -8 -9 -10 -11 -13 -13 -14 -15 -15 -15 -15 -16 -16 -16 -15 -14 -13 -11 -10 -10 -10 -10 -9 -9 -8 -7 -6
-1 -1 -1 -1 -2 -2 -2 -2 -4 -5 -5 -7 -4 -5 -5 -6 -7 -7 -8 -9 -10 -11 -13 -14 -14 -14 -14 -15 -15 -15 -14 -13 -13 -12 -11 -10 -10 -10 -10 -10 -10 -9 -8 -7
-1 -2 -2 -0 -0 -2 -1 -1 -2 -3 -4 -4 -4 -5 -6 -6 -6 -6 -7 -8 -9 -10 -12 -13 -14 -14 -14 -14 -14 -13 -13 -12 -12 -11 -11 -11 -11 -11 -11 -11 -11 -10 -9 -8
-1 -2 -3 -2 -3 -2 -0 -1 -2 -3 -3 -4 -4 -5 -5 -6 -6 -6 -7 -7 -8 -9 -10 -11 -12 -13 -13 -13 -12 -12 -12 -12 -12 -12 -11 -11 -11 -11 -11 -12 -12 -11 -10 -9
-1 -2 -4 -3 -3 -7 1 0 -1 -2 -2 -3 -4 -5 -5 -5 -5 -6 -6 -7 -7 -7 -8 -9 -10 -11 -11 -11 -12 -11 -12 -12 -12 -12 -12 -11 -11 -11 -11 -12 -12 -12 -11 -11
-2 -3 -4 -4 -5 -1 2 0 -2 -2 -1 -3 -3 -4 -4 -4 -5 -6 -6 -6 -6 -6 -7 -8 -9 -10 -11 -11 -11 -11 -11 -12 -12 -12 -12 -11 -11 -11 -11 -11 -12 -12 -11 -11
-2 -3 -4 -5 -5 -8 1 -0 -2 -2 -2 -2 -3 -3 -4 -4 -4 -5 -6 -6 -6 -6 -7 -7 -7 -8 -9 -10 -11 -11 -11 -12 -11 -11 -11 -11 -11 -11 -11 -11 -11 -11 -11 -11
-1 -2 -3 -5 -6 -1 1 -0 -1 -2 -1 -2 -2 -3 -3 -4 -4 -5 -5 -6 -6 -6 -6 -6 -7 -7 -8 -9 -10 -10 -11 -11 -11 -11 -11 -11 -11 -11 -11 -11 -11 -11 -11 -11
0 -1 -1 -4 -7 -1 1 -0 -1 -1 -1 -2 -2 -3 -3 -3 -4 -5 -5 -6 -6 -6 -6 -6 -6 -7 -7 -8 -8 -9 -10 -11 -11 -11 -11 -11 -11 -11 -11 -12 -12 -11 -11 -11
0 1 1 0 2 2 1 1 0 0 -1 -2 -2 -2 -3 -4 -4 -5 -5 -6 -6 -6 -6 -6 -6 -6 -7 -7 -7 -7 -9 -10 -11 -11 -11 -11 -12 -12 -12 -12 -12 -12 -12 -11
2 1 1 1 4 2 1 1 1 -0 -1 -1 -2 -2 -2 -3 -4 -4 -5 -6 -6 -6 -6 -6 -6 -6 -6 -7 -7 -7 -7 -9 -10 -11 -11 -11 -12 -12 -12 -12 -12 -12 -12 -12
1 1 2 2 3 2 2 1 1 0 -1 -1 -1 -2 -2 -3 -3 -4 -5 -5 -6 -6 -6 -6 -7 -7 -7 -7 -7 -7 -7 -7 -8 -10 -11 -11 -11 -12 -12 -12 -12 -12 -12 -12
4 3 3 3 3 2 2 1 1 0 0 -0 -1 -1 -2 -3 -3 -4 -5 -6 -6 -6 -6 -7 -7 -7 -7 -7 -7 -7 -7 -7 -7 -8 -9 -9 -10 -11 -11 -11 -11 -12 -12 -12
Height
3151 3143 3142 3147 3148 3148 3148 3147 3145 3143 3142 3139 3135 3133 3131 3130 3128 3126 3124 3121 3118 3115 3111 3107 3102 3099 3096 3095 3092 3089 3087 3085 3082 3082 3083 3086 3088 3088 3086 3092 3097 3101 3104 3107
3154 3145 3153 3154 3154 3153 3150 3147 3144 3142 3140 3138 3135 3132 3130 3127 3126 3124 3122 3118 3114 3110 3106 3102 3099 3094 3089 3088 3086 3083 3080 3078 3077 3075 3075 3077 3081 3083 3085 3088 3088 3095 3099 3101
3154 3157 3159 3158 3155 3152 3149 3147 3145 3143 3140 3137 3135 3130 3126 3125 3122 3120 3117 3114 3111 3108 3103 3099 3096 3092 3086 3082 3080 3076 3073 3071 3070 3069 3067 3068 3071 3075 3078 3083 3081 3086 3091 3095
3158 3158 3158 3157 3154 3152 3148 3147 3145 3143 3141 3139 3137 3132 3123 3121 3119 3116 3113 3110 3108 3104 3101 3097 3094 3090 3085 3079 3075 3071 3068 3065 3063 3063 3060 3060 3062 3066 3070 3075 3077 3080 3084 3088
3162 3159 3157 3156 3154 3152 3152 3146 3143 3142 3141 3140 3137 3133 3120 3119 3117 3115 3111 3107 3104 3101 3097 3093 3089 3086 3082 3077 3072 3066 3062 3060 3058 3056 3054 3054 3055 3057 3062 3068 3071 3075 3079 3081
3161 3159 3157 3155 3154 3153 3151 3145 3141 3140 3139 3137 3133 3133 3118 3116 3114 3111 3108 3103 3099 3096 3094 3090 3086 3082 3079 3074 3069 3063 3057 3055 3054 3051 3049 3049 3049 3050 3054 3059 3063 3068 3071 3074
3161 3160 3158 3156 3154 3151 3150 3145 3142 3141 3140 3135 3130 3129 3116 3115 3111 3107 3103 3099 3096 3093 3090 3087 3083 3079 3075 3070 3065 3059 3054 3051 3049 3047 3044 3044 3044 3045 3046 3050 3056 3060 3064 3069
3162 3159 3159 3157 3156 3153 3149 3148 3149 3152 3148 3135 3129 3123 3115 3112 3109 3104 3099 3097 3094 3090 3086 3083 3079 3074 3069 3065 3061 3056 3051 3047 3044 3042 3040 3040 3040 3041 3042 3043 3048 3054 3058 3064
3163 3160 3159 3156 3154 3154 3150 3148 3148 3145 3143 3139 3125 3118 3112 3109 3105 3101 3097 3095 3091 3088 3083 3079 3074 3070 3065 3061 3057 3052 3047 3044 3041 3038 3037 3036 3036 3037 3038 3039 3041 3046 3051 3056
3163 3160 3157 3155 3154 3152 3151 3151 3148 3146 3147 3147 3123 3116 3109 3106 3102 3098 3094 3091 3088 3084 3080 3075 3070 3066 3061 3058 3053 3049 3045 3041 3037 3035 3033 3032 3034 3034 3034 3035 3036 3039 3044 3048
3161 3160 3159 3155 3152 3150 3150 3148 3148 3147 3145 3145 3139 3112 3107 3104 3099 3094 3091 3087 3083 3079 3074 3070 3066 3061 3058 3054 3050 3046 3042 3038 3034 3032 3030 3029 3031 3031 3031 3032 3033 3035 3038 3042
3161 3158 3155 3153 3151 3149 3148 3147 3146 3146 3143 3140 3136 3111 3104 3102 3097 3092 3088 3083 3080 3076 3070 3065 3061 3058 3054 3050 3046 3042 3038 3034 3030 3028 3027 3027 3028 3029 3029 3029 3029 3031 3034 3037
3161 3156 3154 3151 3151 3147 3144 3143 3143 3142 3140 3134 3135 3109 3104 3101 3096 3091 3085 3081 3077 3071 3066 3062 3058 3054 3051 3047 3042 3038 3035 3031 3027 3025 3025 3025 3025 3027 3027 3027 3027 3027 3028 3031
3159 3156 3155 3153 3150 3147 3141 3140 3139 3139 3136 3128 3119 3106 3104 3101 3094 3089 3083 3077 3072 3066 3062 3058 3055 3051 3047 3043 3039 3036 3032 3028 3025 3024 3024 3024 3024 3024 3025 3026 3025 3024 3025 3026
3157 3154 3151 3148 3144 3140 3137 3134 3134 3130 3128 3125 3111 3107 3102 3097 3091 3086 3081 3075 3069 3063 3059 3055 3051 3047 3044 3041 3038 3034 3031 3028 3026 3024 3024 3024 3023 3023 3022 3023 3023 3023 3023 3023
3153 3152 3147 3141 3138 3135 3130 3129 3128 3125 3122 3117 3111 3104 3100 3094 3089 3084 3078 3072 3067 3062 3057 3053 3049 3045 3042 3040 3037 3034 3031 3029 3027 3025 3024 3024 3023 3022 3021 3021 3022 3022 3021 3021
3151 3149 3146 3137 3135 3130 3127 3125 3123 3120 3117 3114 3108 3103 3097 3092 3087 3083 3078 3073 3067 3062 3057 3052 3047 3044 3042 3039 3037 3034 3032 3030 3028 3026 3025 3024 3023 3023 3021 3020 3020 3019 3020 3019
3149 3147 3144 3138 3133 3130 3122 3122 3120 3116 3113 3109 3104 3099 3095 3090 3086 3082 3078 3072 3067 3062 3056 3051 3048 3044 3041 3039 3037 3035 3032 3030 3028 3026 3025 3024 3023 3022 3021 3020 3019 3019 3018 3018
3146 3145 3143 3139 3134 3125 3118 3119 3117 3112 3109 3105 3101 3097 3092 3088 3084 3079 3075 3070 3065 3061 3056 3050 3046 3042 3039 3037 3035 3033 3032 3030 3028 3026 3024 3023 3023 3022 3021 3020 3019 3018 3017 3017
3141 3141 3142 3137 3136 3126 3116 3115 3112 3108 3104 3101 3098 3093 3089 3084 3079 3076 3073 3069 3065 3060 3056 3051 3046 3042 3038 3035 3032 3031 3030 3028 3026 3025 3024 3023 3022 3021 3020 3019 3018 3017 3016 3015
3137 3135 3134 3135 3133 3119 3114 3112 3110 3107 3106 3097 3093 3089 3086 3082 3079 3075 3071 3068 3065 3060 3056 3051 3047 3043 3038 3033 3030 3028 3027 3026 3025 3024 3023 3022 3021 3019 3018 3018 3016 3015 3014 3013
3134 3132 3129 3128 3126 3115 3110 3108 3107 3103 3098 3094 3091 3087 3083 3079 3076 3072 3069 3066 3063 3059 3055 3052 3048 3043 3039 3034 3029 3026 3024 3022 3022 3023 3022 3020 3019 3018 3017 3016 3015 3014 3012 3011
3129 3126 3124 3122 3114 3110 3107 3104 3101 3098 3095 3092 3088 3084 3081 3078 3075 3070 3066 3063 3060 3058 3055 3052 3048 3044 3039 3035 3030 3026 3023 3021 3020 3020 3020 3019 3018 3016 3015 3014 3013 3012 3011 3010
3121 3120 3115 3112 3109 3105 3101 3099 3097 3094 3091 3088 3084 3081 3078 3074 3070 3066 3063 3060 3057 3054 3052 3049 3047 3045 3041 3037 3033 3029 3025 3021 3019 3018 3017 3017 3016 3015 3014 3013 3012 3011 3010 3009
3115 3113 3109 3104 3102 3098 3096 3093 3091 3088 3085 3083 3079 3076 3073 3070 3066 3063 3060 3056 3054 3052 3050 3048 3045 3043 3040 3036 3033 3030 3026 3022 3019 3017 3015 3014 3013 3013 3012 3011 3010 3009 3008 3008
3107 3105 3101 3098 3096 3093 3091 3088 3085 3083 3080 3077 3074 3071 3069 3066 3062 3059 3057 3054 3051 3048 3047 3045 3042 3040 3037 3035 3032 3029 3026 3023 3021 3018 3015 3014 3013 3011 3010 3010 3009 3008 3008 3008
Wind_Speed
26 36 38 28 25 19 12 13 9 5 11 15 14 11 11 14 17 22 25 27 25 24 23 19 25 27 25 23 18 18 23 27 32 32 31 32 27 20 29 24 31 32 31 26
21 36 27 20 17 15 12 12 14 11 11 11 7 13 17 18 20 22 27 30 26 28 26 25 31 34 34 29 22 17 19 22 27 30 28 29 33 27 25 27 30 35 32 30
26 20 16 16 17 19 18 9 11 11 9 9 8 14 19 19 21 23 28 24 27 27 26 27 29 35 36 36 28 21 18 18 20 28 26 25 29 33 28 30 32 38 34 35
14 16 13 16 20 21 22 15 5 6 6 4 5 8 16 15 20 25 23 23 26 27 27 28 30 31 35 36 36 34 22 18 16 23 23 21 24 31 31 31 31 32 30 36
12 13 12 18 22 18 23 21 7 3 4 5 6 8 8 12 16 21 24 28 27 28 29 28 29 33 35 37 37 36 29 20 17 18 20 17 17 27 33 31 28 40 31 31
12 12 14 16 21 15 20 20 8 10 10 4 3 6 12 11 21 25 26 25 26 26 24 27 31 34 35 37 36 35 31 23 18 18 17 15 15 19 30 34 31 32 38 31
10 10 16 13 19 14 18 24 3 3 2 5 4 14 14 19 26 27 25 22 23 23 26 32 33 38 35 36 36 35 30 25 20 18 19 14 13 15 22 33 35 32 37 38
10 7 15 17 16 16 15 18 5 3 3 10 28 9 12 24 24 26 23 23 23 27 32 28 30 39 34 35 35 30 28 25 21 19 19 15 11 13 16 26 33 35 33 37
9 5 10 14 16 14 11 14 8 5 9 6 7 14 22 17 25 26 20 23 28 31 31 33 31 31 31 33 27 28 27 24 22 20 18 16 11 11 13 18 28 34 35 34
13 6 10 13 14 11 10 12 6 7 3 5 10 14 17 23 29 29 22 25 22 23 26 29 28 29 26 23 23 23 21 21 21 19 17 15 10 9 11 15 21 29 35 37
15 8 9 13 9 13 11 9 6 7 5 4 3 16 17 27 33 36 32 31 28 30 23 21 20 22 21 21 18 20 20 21 21 18 14 13 9 7 9 12 18 23 29 34
11 7 14 15 11 11 12 13 12 5 4 10 11 16 19 39 35 35 34 30 31 26 24 23 21 19 18 19 20 21 22 21 19 15 9 10 9 4 5 10 15 21 24 28
13 8 10 7 7 12 14 17 16 17 19 20 6 17 39 37 34 36 32 30 28 22 20 19 17 18 18 19 21 26 21 18 15 10 6 7 8 4 4 7 12 18 23 25
13 12 13 12 17 20 26 24 21 19 15 21 29 37 33 30 31 28 28 29 27 24 23 19 16 15 17 23 24 22 17 17 12 7 4 4 5 5 5 5 7 13 20 25
13 15 20 20 21 17 19 17 17 23 26 28 33 38 30 26 27 26 27 28 27 26 24 22 21 20 21 23 23 18 17 15 11 7 4 4 4 7 9 5 2 7 14 21
20 11 22 26 7 17 20 11 13 18 20 25 25 30 23 24 23 24 25 27 28 28 27 25 25 22 19 18 16 15 14 13 10 9 7 5 4 8 11 7 2 1 6 13
17 12 17 9 16 24 8 6 9 14 16 17 21 22 20 21 21 22 24 26 28 28 27 26 23 19 16 13 11 12 12 11 10 10 9 7 6 9 11 7 4 2 2 6
13 14 12 14 15 3 4 11 14 17 11 12 18 20 21 20 20 21 23 24 26 27 28 28 24 19 13 11 11 10 9 11 10 9 9 8 6 8 11 9 7 8 7 6
9 9 9 6 14 23 7 6 14 18 7 19 23 22 22 22 21 19 20 22 23 25 26 28 26 21 15 11 11 11 8 8 10 10 10 9 8 8 9 9 10 10 10 8
10 11 12 10 5 5 8 15 20 16 5 26 26 24 23 23 22 19 19 19 21 22 24 25 26 24 20 14 12 13 10 8 10 8 8 9 7 8 9 9 9 11 13 12
12 14 19 18 12 15 11 15 19 10 17 26 23 22 22 23 23 21 18 18 19 20 21 23 24 26 25 20 15 13 11 10 11 9 8 7 7 8 7 7 7 8 10 11
14 9 9 7 11 9 19 23 18 23 22 22 21 21 21 22 22 21 20 18 18 18 19 20 21 23 24 23 20 13 11 12 13 11 9 7 6 8 7 6 5 7 7 7
15 13 12 14 21 29 23 21 21 20 18 20 21 21 21 21 22 21 20 18 17 18 17 17 18 19 20 22 22 20 14 11 10 10 10 9 5 6 6 6 6 6 6 6
24 22 28 31 21 23 21 18 16 16 16 18 20 20 19 19 19 19 20 18 17 17 17 16 15 16 17 18 19 20 18 13 9 8 9 10 8 8 6 6 7 7 7 7
31 33 33 30 20 21 15 17 15 15 15 17 20 20 19 19 18 18 19 19 18 18 17 16 15 14 14 14 14 15 15 14 11 7 6 7 7 7 6 6 6 7 8 6
28 20 20 19 18 21 15 16 15 14 16 17 19 20 21 19 18 19 18 19 19 19 18 17 16 14 13 12 11 11 10 8 7 6 4 3 2 1 1 2 2 2 4 4
Wind_Direction
40 49 46 42 39 39 45 38 49 360 332 328 310 291 275 281 286 298 307 312 311 316 326 336 340 337 339 337 321 310 304 302 298 286 271 257 252 252 229 216 223 234 232 226
39 54 50 38 39 29 28 26 30 7 360 339 302 284 282 277 283 300 312 314 318 326 330 332 343 342 336 334 328 307 295 295 297 289 271 255 246 246 230 237 212 221 222 228
40 61 44 35 32 24 21 14 27 352 326 0 332 274 271 281 285 296 303 301 306 314 318 326 340 347 342 338 333 326 305 291 281 280 274 258 240 238 236 241 236 216 222 222
30 41 29 25 27 22 14 351 325 4 293 294 331 291 282 283 288 294 290 295 303 309 313 320 325 335 339 337 334 331 321 308 275 273 280 271 244 230 234 230 229 220 222 219
32 30 15 14 20 14 10 349 266 308 283 259 293 286 275 301 310 315 303 292 300 309 313 314 318 324 331 331 331 329 326 319 290 276 286 286 264 230 224 228 224 220 225 221
29 21 13 9 4 6 1 357 260 276 291 265 301 344 289 299 316 323 318 298 298 300 304 312 315 319 324 325 328 330 323 319 314 285 288 288 281 248 223 222 224 218 220 225
14 15 3 357 355 350 358 14 345 330 333 240 294 314 304 320 323 325 318 305 295 296 301 308 305 309 315 321 324 324 319 314 311 303 287 289 284 266 237 220 220 219 216 220
0 356 354 346 350 343 353 21 59 276 279 288 305 238 309 322 330 331 308 304 297 301 305 304 308 310 317 316 316 319 320 317 308 309 292 289 282 273 254 230 219 219 219 218
349 329 334 339 340 349 351 358 355 263 268 298 272 286 311 328 342 340 309 308 312 311 312 313 314 317 311 312 315 319 318 320 313 309 304 284 285 271 258 245 225 219 221 220
347 320 328 330 330 333 336 343 341 341 356 303 289 287 302 333 348 346 335 330 316 313 312 309 308 307 310 314 319 318 323 326 321 314 308 282 282 274 260 248 238 224 220 221
345 332 328 323 318 319 315 318 333 317 258 209 295 295 321 341 344 342 339 334 335 327 318 321 313 311 310 322 325 331 336 332 321 313 304 278 281 272 265 247 243 236 227 220
339 305 315 315 306 310 294 293 302 308 280 252 273 277 332 337 337 335 332 331 327 324 323 316 315 318 326 335 329 340 339 332 319 313 295 280 282 264 268 259 240 236 236 227
335 318 319 315 314 322 305 311 304 298 284 269 261 281 321 330 330 325 325 328 328 336 333 339 332 335 339 338 347 348 338 328 319 314 300 287 288 284 289 279 248 240 240 238
326 305 302 276 298 303 297 299 296 284 272 276 276 303 331 329 318 323 324 333 335 345 345 349 347 350 350 360 354 343 341 344 346 339 307 296 301 308 304 304 256 244 242 241
318 306 306 310 306 290 302 292 286 276 283 273 304 305 330 322 322 326 334 338 344 347 354 357 3 1 1 356 348 343 355 358 359 349 338 324 311 317 313 327 259 244 248 246
312 298 310 320 276 311 308 284 281 285 287 289 307 312 320 323 326 331 338 344 349 351 355 358 357 356 355 350 343 344 356 356 358 358 356 330 317 321 323 329 1 256 250 253
296 302 317 294 314 315 295 338 319 309 307 307 306 330 327 330 330 335 342 349 353 355 354 358 356 355 347 339 336 338 346 352 351 352 346 351 325 323 323 326 332 340 302 264
286 301 306 296 328 331 266 320 324 322 329 313 339 339 342 339 339 338 344 350 353 357 358 360 3 359 345 328 320 325 337 341 338 341 337 345 331 317 313 316 316 319 319 313
270 277 297 281 306 299 291 329 336 332 347 354 348 349 347 346 346 338 342 348 352 356 360 1 3 4 353 322 304 310 323 327 329 337 334 338 336 323 310 317 313 308 310 308
263 267 262 290 300 257 306 331 341 335 306 347 345 345 347 348 342 339 339 344 348 353 357 0 1 2 3 347 311 298 306 309 306 322 332 334 344 333 326 316 310 305 296 298
261 268 262 260 262 284 305 324 332 326 329 334 337 339 342 344 340 338 336 339 343 348 353 356 359 2 1 358 341 310 290 285 287 301 315 327 342 332 335 336 329 317 314 290
280 265 253 228 230 280 322 315 308 315 320 326 333 335 338 339 338 337 335 332 335 342 346 350 353 358 360 358 355 336 299 278 280 290 295 304 330 330 324 326 328 335 341 332
260 265 272 264 286 311 313 311 308 307 315 320 332 335 336 334 333 334 330 326 328 332 335 339 345 351 356 356 358 355 340 315 292 286 285 286 292 295 302 305 304 311 320 329
276 279 279 291 324 315 302 304 299 298 315 320 329 334 332 327 326 326 326 326 320 320 322 327 334 340 346 350 353 354 351 341 320 298 279 277 273 274 279 282 286 291 296 301
283 289 288 292 320 305 313 308 308 303 315 322 327 330 331 326 322 321 323 322 317 311 311 315 320 326 331 338 342 348 353 354 349 329 302 285 280 276 274 279 280 285 289 292
298 297 278 296 308 298 305 310 306 303 316 320 324 327 326 324 322 319 320 318 312 307 301 302 304 309 312 315 321 330 340 350 3 12 33 45 60 95 97 92 99 95 71 72